Wind_Speed
11 10 10 10 10 9 9 9 9 8 8 8 8 8 6 5 4 4 4 5 6 7 8 8 8 8 8 8 11 13 16 17 17 16 15 15 15 16 16 15 14 14 14 14 13 12 11 11 11 10 10 10 10 10 10 9 9 9 9 9 10 10 10 10 10 10 9 8 8 7 7 6 6 7 7 8 8 9 9 9 9 8 8 7 7
11 10 10 10 10 10 10 10 10 10 9 10 10 9 7 6 5 5 6 7 7 8 9 9 9 9 9 9 10 12 14 15 15 14 13 14 14 14 14 14 13 13 13 12 12 12 11 11 10 10 10 11 11 11 11 11 11 11 11 11 11 11 12 12 11 11 10 10 9 8 8 8 8 8 8 8 9 9 9 9 9 9 8 8 7
10 10 10 10 11 10 10 9 9 9 9 9 9 9 7 6 6 6 6 6 7 8 9 9 10 10 10 10 11 11 12 13 13 12 12 12 12 12 12 12 12 12 12 12 12 12 12 11 10 10 10 11 11 11 11 11 11 11 11 12 12 13 13 13 12 12 11 11 10 9 9 8 8 8 8 9 9 9 10 10 10 10 9 9 8
10 10 10 10 10 9 9 8 8 8 8 8 8 8 7 6 7 6 6 6 6 6 7 8 9 9 9 10 11 11 11 10 10 10 10 10 11 11 12 11 12 12 12 12 13 13 12 11 10 10 10 10 10 10 10 10 11 11 11 12 12 13 13 13 13 12 11 11 10 10 10 9 9 9 9 10 10 10 11 11 11 11 10 9 9
9 9 9 9 9 8 8 8 8 8 8 8 8 8 7 7 7 6 6 5 5 6 6 7 7 8 8 9 10 10 9 9 9 9 9 10 10 11 11 10 10 11 11 11 12 12 11 11 10 10 9 9 9 9 9 9 9 9 10 10 11 12 12 12 12 11 11 11 10 10 10 11 11 11 11 11 11 12 12 12 12 11 11 11 10
9 9 9 8 7 7 7 7 8 8 8 8 8 8 7 7 6 6 6 6 6 6 6 6 6 6 6 6 7 8 8 8 8 8 9 10 9 9 9 9 8 8 8 8 8 8 8 8 8 8 8 8 8 8 8 8 8 8 8 8 9 10 11 11 11 10 10 10 10 10 11 11 12 12 12 13 12 12 12 12 12 12 12 12 11
9 9 8 7 6 6 7 8 8 8 8 8 7 7 6 6 5 6 6 6 6 7 7 7 6 6 5 4 5 7 8 8 8 9 10 10 9 10 9 7 7 7 6 6 5 6 6 7 7 7 7 7 7 7 6 6 7 7 7 7 8 9 10 10 10 10 10 10 10 11 11 12 13 13 13 13 13 13 13 13 12 12 12 12 12
9 9 9 8 7 6 7 8 9 9 8 7 6 6 5 5 5 5 6 7 7 7 7 7 7 6 4 4 5 7 8 8 9 10 10 10 10 10 8 7 6 6 6 5 5 6 6 7 7 6 6 5 5 5 5 5 6 6 7 8 8 9 10 10 11 11 11 11 11 11 11 12 12 13 13 13 13 13 13 13 13 13 13 13 13
9 9 9 9 8 7 7 8 8 8 7 6 6 5 5 5 5 5 5 7 7 7 7 7 7 5 4 5 6 6 6 8 9 10 10 11 11 10 7 6 6 6 6 6 5 5 5 5 5 4 4 4 3 3 4 4 4 5 6 6 7 8 9 9 10 11 11 10 10 10 10 11 11 11 11 12 12 13 13 14 14 14 14 14 14
9 10 10 10 8 7 7 7 6 6 5 5 5 5 5 4 4 5 5 7 7 7 7 7 7 5 5 5 5 4 4 6 7 7 9 10 11 9 7 6 6 6 5 5 4 4 4 4 3 3 3 2 2 2 3 3 3 3 4 5 5 6 6 7 8 8 9 9 9 10 10 10 10 10 10 10 11 11 12 12 13 13 14 14 14
10 10 10 10 9 8 8 7 6 5 3 4 4 4 4 4 4 4 5 6 7 7 7 7 7 6 5 5 5 3 3 5 5 4 7 8 8 7 6 5 5 4 4 4 4 4 5 4 3 3 2 1 1 2 2 3 2 2 3 3 4 4 5 6 6 6 7 7 8 8 8 9 9 10 10 10 10 11 11 11 11 12 12 13 13
8 9 10 10 8 8 9 8 6 4 3 3 3 3 4 3 3 4 5 6 6 6 7 7 6 5 5 5 5 3 3 5 6 4 4 4 4 6 6 4 4 4 3 3 4 4 4 4 2 2 2 2 2 2 3 3 3 2 2 3 3 4 4 5 5 5 6 6 7 7 8 8 8 8 9 9 10 10 11 11 11 11 12 12 12
4 5 7 8 7 7 7 6 5 4 3 2 2 3 3 3 3 4 5 6 6 6 6 7 7 5 5 5 5 3 3 4 4 2 2 1 1 4 5 2 3 3 3 3 3 3 3 2 1 2 3 3 3 3 3 3 4 3 3 3 4 4 4 4 5 5 6 6 6 7 6 7 7 7 8 8 9 10 10 11 12 12 12 12 12
3 3 4 4 4 4 4 4 4 4 4 2 2 3 3 3 3 5 6 6 6 6 7 7 7 6 5 5 5 3 3 2 3 2 2 1 1 2 3 2 2 3 4 4 3 3 3 2 1 3 4 3 3 3 4 4 4 4 4 4 4 5 4 4 5 5 5 6 6 6 6 6 7 7 7 7 8 9 10 10 11 12 12 12 12
5 5 5 5 5 5 4 4 4 4 4 4 3 3 3 3 3 5 6 6 6 7 7 7 6 6 5 5 5 3 2 0 3 4 3 3 3 3 2 1 1 2 3 3 3 2 2 2 2 2 3 2 2 2 3 4 4 4 4 4 4 5 5 5 5 5 6 7 7 7 7 7 7 8 8 9 9 9 10 10 10 10 11 11 11
5 5 5 6 6 6 5 4 4 5 5 5 5 4 5 5 5 5 6 6 7 7 7 6 5 5 5 5 4 3 3 2 4 5 5 4 4 3 2 1 2 2 2 2 2 1 0 1 1 0 0 0 1 2 2 3 4 4 4 4 4 5 6 7 7 8 8 8 8 8 8 9 9 9 10 10 10 10 10 9 9 9 9 10 10
4 4 4 5 5 6 5 4 4 4 5 6 6 6 6 6 6 6 7 7 8 8 7 6 5 5 5 5 4 4 3 3 4 4 4 3 3 3 2 1 2 2 2 3 2 1 2 2 1 1 1 1 1 1 2 2 3 4 4 5 5 6 7 8 8 8 8 8 8 8 8 8 9 9 10 10 10 9 8 8 7 6 6 6 7
2 2 3 4 4 5 4 4 3 3 4 5 6 7 7 7 7 7 7 8 8 8 7 7 6 5 5 5 5 4 3 2 3 3 3 2 2 2 2 1 2 2 2 3 3 3 3 3 3 3 2 1 0 0 1 2 3 4 5 5 6 6 6 7 7 7 7 7 7 7 7 7 8 8 9 8 8 7 6 5 5 6 6 7 7
2 2 2 3 3 3 3 2 2 2 3 3 4 5 7 8 8 8 8 8 9 9 8 7 7 6 6 6 5 5 4 3 3 2 2 1 2 2 1 2 3 4 3 4 4 4 4 4 4 3 2 1 1 2 3 3 4 5 5 5 5 5 5 5 5 6 6 6 6 6 6 6 7 7 6 6 5 5 5 6 7 7 8 8 8
1 1 1 1 2 1 1 0 1 2 3 4 4 5 6 8 8 9 9 9 10 10 9 8 8 8 7 7 6 6 5 4 3 3 3 2 2 2 2 4 5 4 4 3 4 5 5 4 3 2 1 2 3 4 5 5 5 5 5 5 4 4 4 4 5 5 5 5 5 5 5 5 5 6 6 6 7 7 7 7 8 8 9 9 9
1 0 1 1 1 2 2 3 3 3 4 5 5 5 6 7 8 9 10 10 10 10 10 10 9 9 8 8 8 7 6 5 5 5 5 4 3 2 3 4 4 4 3 3 4 4 3 2 2 2 2 4 4 5 5 5 4 4 3 3 3 3 4 4 4 4 4 4 4 5 5 6 6 7 8 8 8 8 8 8 8 9 9 9 9
3 3 4 4 4 4 5 6 5 5 5 6 6 6 6 6 8 9 9 9 9 10 10 11 10 9 9 8 8 8 7 7 8 8 7 6 4 3 3 4 4 5 5 4 4 4 3 3 3 3 3 4 5 5 5 4 3 3 2 2 2 3 3 3 3 3 3 3 4 5 6 7 7 8 8 8 8 8 8 8 8 8 8 9 9
4 5 6 7 7 7 8 8 7 6 5 5 6 6 6 6 7 8 9 8 8 9 10 10 10 10 9 9 9 9 9 10 10 9 9 8 6 4 4 4 4 5 6 6 5 5 4 4 4 3 4 4 4 4 3 3 3 2 2 2 1 1 1 2 2 2 2 3 4 5 6 6 7 7 8 8 8 8 8 8 8 8 8 8 8
5 6 7 8 8 8 8 8 7 6 5 5 6 6 6 6 7 8 10 10 10 10 11 11 10 10 10 10 10 10 10 11 10 9 9 8 7 6 5 5 5 5 6 6 5 5 5 4 4 4 4 4 3 3 3 3 2 2 2 1 1 0 1 1 2 2 2 3 4 5 5 6 7 7 7 8 8 8 8 8 8 8 8 8 8
6 8 9 8 7 6 6 5 5 4 4 5 6 6 6 6 7 8 10 11 11 11 11 10 10 10 10 11 11 11 11 9 8 8 8 7 6 6 5 6 5 5 6 6 5 6 5 4 4 4 4 3 2 2 2 2 2 1 1 1 0 1 1 2 2 2 2 3 3 4 4 5 6 6 7 7 8 8 8 8 9 9 9 9 9
6 8 9 8 7 5 3 3 3 3 4 5 6 6 6 6 7 8 9 10 10 10 10 9 9 10 10 11 11 11 10 9 8 8 8 7 6 6 6 5 4 4 5 5 5 5 4 4 4 3 3 2 2 1 1 1 0 0 1 1 1 2 2 1 1 2 2 2 3 3 4 4 5 6 7 8 8 8 8 9 9 9 10 10 10
5 7 7 6 5 4 3 2 3 3 4 5 6 7 7 6 7 8 9 9 10 10 10 10 10 10 10 11 11 11 10 9 9 8 7 7 7 7 6 5 4 4 4 5 5 4 4 4 4 3 2 1 1 0 1 0 0 1 1 1 2 2 2 1 1 1 2 3 3 4 4 5 6 6 7 8 9 9 9 9 9 10 10 11 11
5 7 6 5 5 4 3 4 4 4 4 5 7 7 7 6 7 8 9 10 11 11 11 11 11 11 11 12 12 11 10 9 9 8 7 6 6 6 6 5 5 4 4 4 5 4 4 3 2 1 1 1 1 1 0 0 1 2 2 2 2 2 1 1 0 1 2 4 5 6 6 7 8 9 9 10 10 10 10 10 11 11 12 13 13
6 7 7 7 6 5 4 5 6 6 6 6 7 7 7 7 7 9 10 10 10 11 10 10 12 12 12 13 13 12 11 10 9 8 7 6 6 6 5 5 5 4 4 4 4 4 4 3 2 1 1 1 0 0 0 1 2 3 3 3 2 2 2 2 2 3 4 5 6 7 8 9 10 11 11 11 12 12 12 13 13 13 14 14 15
7 8 8 8 8 6 5 5 7 8 8 8 8 7 6 7 8 9 9 9 9 8 8 9 11 12 13 14 14 13 12 11 10 9 7 7 7 6 6 7 7 5 5 5 5 4 4 3 3 2 2 2 2 2 2 2 3 3 3 3 3 3 3 3 4 5 6 8 9 9 9 10 11 12 12 13 13 14 14 15 15 16 16 16 16
8 9 9 9 9 8 7 6 7 8 8 9 9 8 6 7 7 8 8 8 8 7 6 8 9 10 12 13 13 13 13 12 10 9 9 8 7 7 8 8 8 6 6 6 5 4 4 4 4 4 3 3 3 2 2 3 3 4 4 4 4 5 5 6 7 8 9 10 11 10 10 10 11 12 13 14 15 16 16 17 17 18 18 17 17
9 9 10 9 9 8 8 7 7 8 8 8 8 8 7 7 7 8 8 8 8 6 6 8 9 9 10 11 12 12 12 12 10 9 10 9 8 8 8 8 7 6 6 6 5 5 5 5 4 4 4 4 3 3 3 3 4 4 5 5 6 7 8 9 10 11 12 12 12 11 11 11 12 14 16 17 17 18 18 18 18 18 18 17 16
11 11 10 10 9 8 8 8 8 8 7 7 7 7 7 8 8 9 9 9 8 7 8 10 11 11 11 11 11 12 12 12 11 11 10 9 8 8 7 6 6 6 5 4 5 6 7 6 5 5 4 4 3 3 3 3 4 5 6 7 8 9 10 11 12 14 14 14 14 13 13 13 15 17 19 19 20 20 20 19 19 18 17 16 15
12 12 11 11 10 9 8 8 9 8 8 7 7 8 8 9 9 9 9 9 8 8 10 12 12 13 13 13 12 12 12 12 12 11 10 9 8 8 7 6 5 5 4 4 6 7 7 6 5 5 4 4 3 3 4 5 6 7 8 9 10 11 12 13 14 15 15 16 15 15 15 16 18 20 20 21 21 20 20 20 19 18 17 16 14
12 12 11 11 11 10 9 8 9 8 8 7 7 8 9 9 9 9 9 9 8 9 12 13 13 14 14 14 13 13 14 14 13 13 12 11 9 9 8 6 5 4 4 5 7 7 6 5 5 4 4 4 5 5 5 6 7 9 10 10 11 12 13 14 14 15 16 16 17 17 17 18 20 21 21 21 21 20 20 20 20 18 17 16 15
13 12 11 11 10 10 9 9 8 8 8 8 7 8 9 9 9 9 9 9 9 10 12 13 14 14 15 15 14 15 16 16 14 13 13 12 11 9 8 6 6 6 6 7 7 6 5 5 5 5 5 5 6 7 7 7 8 9 10 11 11 12 13 15 15 16 16 17 18 18 19 20 21 21 22 22 22 21 20 20 20 19 18 17 17
15 13 12 10 10 10 9 9 8 8 8 8 8 8 9 10 10 9 10 10 9 10 12 13 13 14 15 15 16 16 17 16 15 14 14 13 11 10 9 7 7 7 7 7 7 6 6 6 7 7 7 8 8 9 9 9 10 11 11 12 12 13 14 16 17 17 18 19 19 20 20 21 21 22 22 22 22 22 21 21 20 20 19 19 20
16 15 13 11 10 10 9 8 8 8 8 8 8 9 10 11 10 10 10 10 10 11 11 12 13 14 14 15 16 17 17 17 16 15 15 14 13 12 11 10 10 9 9 9 9 8 8 9 9 9 9 10 10 10 11 12 13 14 15 15 15 16 16 17 18 18 19 20 21 22 22 22 22 23 23 23 23 23 23 23 22 22 22 22 23
17 16 15 12 10 9 9 8 8 8 8 8 8 9 10 11 11 10 10 10 10 11 12 13 13 13 14 15 16 17 18 18 17 17 17 17 16 16 15 15 13 13 12 11 11 10 10 10 9 9 9 10 11 12 13 14 15 16 17 18 19 19 19 19 19 19 20 21 22 23 24 24 24 23 23 23 23 23 23 24 24 24 24 25 25
19 17 16 13 10 8 9 9 9 9 9 8 8 9 9 10 10 10 10 9 10 10 12 13 13 13 14 15 16 17 17 18 18 18 18 18 17 17 17 16 15 14 13 12 11 10 9 9 9 9 10 11 12 13 14 16 16 17 19 20 20 20 20 21 21 21 22 23 24 24 25 25 25 25 24 24 24 24 24 24 24 25 26 27 28
21 20 17 13 10 8 9 9 10 10 10 9 9 9 10 10 10 10 10 10 10 11 11 12 13 13 14 15 16 16 16 16 17 17 17 16 16 15 14 14 13 13 12 11 10 10 10 10 10 11 13 13 14 15 16 17 17 18 19 20 21 21 22 23 23 23 24 25 25 26 26 26 26 26 25 25 25 25 25 25 26 26 28 29 30
24 22 18 13 10 9 9 10 10 10 10 9 9 10 11 11 11 11 11 11 11 12 12 12 13 13 14 15 16 16 16 16 16 16 16 16 15 14 14 14 13 13 13 12 12 12 13 13 14 15 16 16 16 17 18 18 19 20 20 20 21 21 23 24 24 24 25 26 27 28 27 27 27 26 26 26 26 25 25 26 27 28 29 30 30
20 19 16 12 10 9 9 10 10 10 10 10 11 11 12 12 12 12 12 13 13 13 13 13 14 14 15 15 16 16 17 17 17 17 16 16 16 16 16 16 15 15 15 15 15 16 16 17 17 18 19 19 19 19 19 20 21 21 21 22 22 23 24 25 25 26 26 27 29 30 29 29 28 27 27 27 27 27 27 28 28 29 30 30 31
15 15 15 12 10 10 10 10 10 10 11 11 12 13 13 13 13 13 13 13 14 14 14 15 15 16 16 16 17 17 17 17 17 17 17 17 17 17 17 17 18 18 18 18 19 20 20 20 21 21 21 21 21 21 21 22 22 23 24 25 25 25 26 26 27 28 28 29 31 32 30 29 28 29 29 28 29 29 29 29 30 30 31 32 33
15 15 15 13 12 11 11 11 11 11 12 13 13 14 15 15 15 15 15 15 15 15 15 15 16 16 17 17 18 18 18 18 18 18 18 18 19 19 20 20 21 21 22 22 23 23 24 24 24 24 23 24 24 23 23 24 25 26 27 28 28 29 29 29 30 31 31 31 33 34 32 30 29 31 32 31 31 31 30 30 31 31 33 34 34
16 16 16 15 13 13 13 13 13 13 13 14 14 15 16 17 17 17 17 17 17 17 17 17 17 17 18 18 18 19 19 20 20 20 21 21 22 23 23 24 25 25 26 26 26 27 27 27 27 27 26 26 27 27 27 28 29 30 31 31 31 32 32 32 33 34 33 33 34 36 36 34 32 32 33 33 32 32 31 31 32 33 35 36 36
16 17 17 16 15 15 15 15 14 14 15 15 16 16 17 18 19 19 19 20 20 20 20 20 20 20 20 21 21 21 22 22 22 23 24 24 25 26 27 27 28 29 29 29 30 31 31 30 30 29 29 29 30 30 31 32 33 33 34 34 34 34 35 36 36 36 35 35 36 37 39 39 36 34 35 34 33 32 32 32 33 34 36 37 37
16 17 17 17 17 17 17 17 17 16 16 16 17 17 18 19 19 20 21 22 22 23 23 23 23 24 24 24 24 25 25 25 26 27 28 28 29 30 30 31 32 32 33 32 33 33 33 33 33 32 33 33 34 34 35 35 35 35 36 37 37 37 39 39 39 37 36 35 36 36 38 40 37 35 35 35 34 33 33 34 34 36 37 38 38
17 17 18 18 19 19 19 19 19 18 18 19 19 19 20 20 21 21 22 23 24 24 25 26 26 26 27 28 28 28 28 28 29 31 31 32 32 33 33 33 34 35 35 34 35 35 35 35 35 36 36 37 37 37 38 38 37 36 37 38 37 38 40 40 38 37 35 34 35 36 38 39 37 36 36 35 33 33 34 35 36 36 37 38 38
17 18 19 19 20 21 21 21 21 21 21 22 22 22 22 22 22 23 24 25 25 26 26 27 28 28 29 30 30 30 31 31 32 33 34 35 35 35 35 35 36 36 36 35 36 36 36 35 35 36 37 37 36 37 38 38 38 37 37 38 38 38 38 37 37 36 35 35 35 36 37 38 38 37 36 34 33 33 33 34 36 37 37 38 38
17 18 19 20 21 21 22 23 23 24 24 24 24 24 24 24 24 25 26 26 27 28 28 28 29 29 30 30 31 32 32 32 33 34 35 36 36 36 36 37 37 36 35 36 37 37 37 37 36 37 39 39 38 39 39 40 40 38 38 38 38 39 38 37 37 37 36 35 35 35 36 37 38 38 35 33 33 33 32 34 36 37 37 38 39
Wind_Direction
203 207 214 218 222 229 233 238 242 243 243 246 245 242 238 237 239 243 249 252 252 254 256 254 251 246 237 228 224 226 231 234 237 241 243 245 246 249 253 254 254 257 260 264 266 268 272 277 283 287 288 288 286 285 284 284 282 280 278 275 274 274 278 281 284 288 290 292 294 297 300 304 309 314 319 323 328 330 332 333 335 339 342 346 348
215 223 231 239 246 251 253 254 253 250 247 245 243 240 239 243 251 255 254 254 252 251 251 252 249 244 236 227 222 223 227 231 235 239 242 245 247 249 252 254 255 257 261 264 267 270 273 277 282 284 285 283 281 279 279 278 277 276 274 272 269 267 270 274 277 280 282 284 285 288 292 297 302 307 311 315 318 319 320 320 321 322 324 327 328
226 239 249 257 262 263 262 257 249 245 242 240 238 237 240 249 259 262 260 257 252 248 247 248 247 243 238 231 225 224 225 228 232 237 242 247 250 254 256 258 261 263 265 268 270 273 275 278 281 283 283 281 280 279 277 276 274 272 269 267 265 264 266 269 272 274 275 277 279 282 286 290 295 300 304 306 307 307 307 307 308 309 310 312 313
239 251 260 263 264 263 257 248 240 238 237 238 240 244 249 257 263 264 263 257 248 245 244 244 244 243 239 232 228 227 228 229 230 233 240 247 252 255 258 260 263 265 268 270 272 272 273 275 277 279 280 280 281 280 277 275 273 270 266 263 262 264 267 270 272 274 275 276 278 281 284 287 289 291 293 295 297 297 297 299 299 300 301 302 302
249 257 263 263 260 255 248 243 243 242 243 246 251 256 259 261 262 261 257 249 244 243 241 240 240 239 236 231 230 231 234 234 231 230 233 240 248 253 255 256 259 261 264 266 268 269 269 270 270 271 273 275 277 275 274 273 272 270 266 264 264 267 270 272 274 275 277 279 281 284 286 288 289 289 289 289 289 290 291 292 294 295 296 296 296
254 258 262 260 254 246 243 245 248 249 251 256 260 262 260 259 260 255 247 239 236 233 232 236 240 242 241 241 238 234 237 238 236 236 237 241 246 250 253 255 258 260 260 261 263 265 264 264 264 263 265 268 269 270 270 271 270 269 268 268 268 268 268 270 272 273 273 275 279 282 283 285 286 288 289 289 288 287 288 288 289 290 291 292 293
251 253 254 253 250 243 242 245 249 252 256 262 266 266 261 258 255 248 239 233 230 228 227 235 245 250 254 259 252 244 243 243 244 248 249 250 247 245 248 254 255 253 250 250 255 260 262 262 260 261 263 263 264 266 268 268 267 266 265 265 265 267 268 269 269 269 270 272 275 278 280 282 282 283 283 285 286 286 286 286 287 286 286 287 289
246 247 248 249 249 247 249 251 253 254 255 262 265 262 258 254 250 241 233 228 227 230 230 235 245 252 259 262 257 253 250 248 250 252 252 253 251 244 241 240 240 247 251 250 253 261 267 266 263 263 264 264 266 268 266 263 263 265 267 267 267 268 270 271 270 271 272 274 275 278 280 281 280 280 280 280 282 282 283 283 284 285 285 286 287
244 245 248 250 252 255 259 261 261 257 254 260 261 257 255 251 248 242 233 229 228 231 232 235 240 243 248 253 254 254 256 255 251 251 251 252 253 247 240 237 236 245 251 249 251 258 263 263 263 261 261 264 268 267 263 260 261 267 271 272 272 270 270 272 272 271 272 274 277 280 281 280 278 279 278 278 278 278 279 280 280 281 282 283 284
244 245 247 246 248 252 255 258 259 257 259 268 268 263 260 253 249 244 236 230 226 225 228 235 235 229 228 239 250 253 263 262 251 250 254 253 252 248 244 237 227 226 226 226 233 237 240 241 242 245 252 257 252 256 256 255 259 266 276 277 274 271 268 270 270 267 269 272 274 277 279 280 280 280 279 278 278 278 278 279 279 279 279 280 281
245 243 242 239 239 242 249 254 251 252 267 280 281 273 263 253 247 245 234 224 220 218 222 233 234 220 213 229 247 254 266 273 283 280 256 247 246 237 222 205 193 199 202 211 228 235 240 236 234 249 267 285 274 274 266 263 273 282 290 288 282 278 273 274 274 271 273 273 272 274 279 281 282 284 284 282 281 282 282 281 281 281 280 280 281
243 236 234 237 238 239 247 255 256 259 269 276 275 262 255 246 236 234 224 216 216 218 218 226 228 217 214 230 245 253 270 289 316 310 239 228 234 206 186 176 177 191 200 211 227 242 250 234 235 283 299 302 294 283 274 276 291 301 302 295 293 298 296 293 293 294 292 288 285 285 285 286 287 290 291 291 288 286 285 284 285 284 283 283 283
218 219 224 230 233 234 241 247 253 259 261 266 253 234 242 242 225 214 211 212 213 217 217 219 222 217 220 235 243 248 279 311 346 351 191 189 220 180 165 169 189 203 225 234 235 251 264 245 263 288 268 270 278 276 277 285 294 305 309 304 303 310 313 309 309 309 302 297 297 295 294 296 300 298 297 297 293 291 290 289 289 288 287 286 284
134 153 173 188 196 199 208 219 230 242 247 254 236 220 235 245 230 206 202 208 209 210 215 219 224 221 220 232 238 243 278 335 49 111 166 102 79 138 142 164 208 226 237 242 245 251 265 280 296 277 262 260 271 282 291 299 303 309 316 316 315 321 324 320 321 316 306 305 305 304 305 305 304 302 301 300 297 296 296 294 289 287 287 288 288
112 112 115 122 134 146 166 191 207 222 231 235 226 213 219 228 227 212 204 208 210 211 215 221 225 219 215 227 234 236 249 51 112 143 165 128 96 93 110 141 214 244 237 229 240 242 252 288 300 288 278 267 272 294 306 313 316 320 325 329 326 324 324 322 317 310 306 308 310 309 309 306 304 304 304 304 302 301 301 299 292 286 285 285 287
107 101 104 110 117 125 141 168 192 208 215 217 214 208 210 214 214 210 206 208 212 216 219 221 219 209 206 217 227 227 208 150 130 148 162 143 117 109 114 134 203 232 224 196 218 226 222 297 316 326 279 248 348 342 340 339 334 330 329 328 323 315 313 312 308 305 305 305 306 305 304 303 305 306 305 305 305 305 304 303 300 296 292 289 289
109 112 117 120 122 124 131 146 172 196 206 205 203 201 204 209 211 209 208 212 216 219 222 220 217 208 200 197 206 220 203 144 131 149 162 147 122 125 137 173 207 218 201 175 195 187 158 182 168 140 133 115 78 30 1 343 328 319 316 314 311 309 308 308 306 305 305 306 307 307 307 308 310 310 309 308 308 308 309 312 316 322 324 321 315
128 134 132 127 124 123 129 141 160 185 202 202 201 204 207 210 215 216 218 219 220 222 223 220 216 211 202 193 196 207 203 159 143 157 170 152 139 137 145 190 181 185 184 167 178 188 176 171 155 143 142 144 155 317 321 312 305 303 303 304 305 307 308 308 307 308 311 316 320 321 322 319 315 312 310 309 312 319 331 346 1 9 8 2 352
139 142 135 124 116 112 118 132 165 194 209 206 203 208 214 218 220 222 223 224 223 223 223 221 216 209 203 199 199 198 197 188 160 156 177 156 150 148 134 161 154 161 171 160 170 181 176 163 151 151 165 207 270 291 294 292 292 294 298 302 306 309 311 312 313 318 323 328 332 333 333 330 329 330 329 335 347 1 14 21 21 16 10 4 359
121 150 160 142 125 112 98 69 258 247 242 232 218 211 216 221 221 221 220 219 220 222 222 220 216 207 200 200 200 199 197 192 170 166 187 178 157 141 114 131 141 152 163 161 166 169 166 161 161 179 236 280 291 295 293 292 293 297 303 308 313 316 317 319 323 328 335 339 345 350 356 3 9 15 19 26 31 31 28 22 15 7 2 0 359
53 323 273 264 265 274 281 288 294 286 266 251 237 223 218 219 220 220 218 215 214 217 218 216 214 207 201 201 202 206 206 193 180 179 187 190 177 148 129 137 142 150 156 156 160 163 167 180 211 256 282 296 297 297 296 295 298 304 311 313 314 317 319 325 333 342 350 356 4 12 22 29 35 40 42 42 40 34 27 18 11 6 4 2 1
3 335 318 304 294 287 282 284 290 291 281 263 251 238 227 222 222 221 218 216 214 215 217 215 214 210 205 204 207 212 209 197 192 189 188 194 197 178 164 168 165 162 165 172 175 179 199 222 243 267 287 294 293 294 295 298 305 308 308 308 310 316 323 334 344 354 2 9 18 26 34 39 42 43 43 41 38 33 28 22 18 14 11 8 5
338 328 319 309 300 291 284 283 284 286 281 267 258 250 237 230 227 217 208 211 216 218 223 220 214 211 206 206 211 214 210 201 196 197 194 193 201 201 190 189 185 176 176 184 194 202 219 234 256 285 294 294 294 300 306 306 305 303 301 305 308 321 339 349 356 11 26 35 39 40 42 43 42 41 40 37 33 29 25 21 18 15 12 9 5
333 330 323 315 307 295 285 280 279 278 269 259 258 257 247 239 234 217 204 208 214 216 221 221 216 213 209 209 212 215 219 210 194 197 203 197 203 213 209 200 191 185 187 196 211 220 229 243 270 294 297 298 303 308 308 300 295 294 294 293 297 354 24 23 33 48 57 57 52 49 45 40 37 34 30 26 21 17 12 8 5 2 0 358 356
343 340 334 330 327 312 294 282 276 269 262 262 263 263 257 248 241 227 213 212 213 214 220 222 220 218 214 215 215 213 219 216 196 198 208 205 210 217 219 218 207 197 200 207 220 230 238 257 280 290 291 290 292 294 293 288 286 282 270 233 186 95 67 57 57 59 57 53 49 47 42 35 28 22 16 11 5 0 355 350 347 344 342 340 339
352 350 343 339 340 333 309 289 278 267 265 270 269 269 265 254 241 229 219 213 212 216 220 221 221 220 214 214 216 213 213 214 208 207 208 205 208 210 212 220 219 211 212 215 225 233 243 261 272 271 266 263 265 274 295 309 292 238 221 198 160 119 98 85 77 64 50 39 32 29 22 15 9 3 359 354 350 346 342 337 333 331 329 327 326
351 356 351 339 336 334 310 282 272 267 267 273 274 272 267 255 238 226 218 212 213 217 218 216 216 217 214 211 213 214 211 212 215 214 209 205 206 206 205 208 211 211 213 218 222 228 239 251 253 248 249 283 310 354 32 40 175 210 209 194 166 143 131 127 108 67 40 20 12 8 358 349 344 342 341 340 338 336 332 329 326 324 322 321 320
346 355 1 344 323 307 290 274 269 271 270 271 270 269 267 255 239 226 219 216 219 222 221 218 215 214 215 212 213 216 214 214 219 219 217 216 216 217 212 209 215 212 202 204 209 215 225 230 233 238 263 357 1 11 29 162 200 205 202 199 188 177 184 207 269 350 1 358 359 356 349 341 335 332 330 328 327 325 323 321 319 318 318 317 317
340 350 2 354 329 300 285 278 277 280 277 273 269 266 265 255 240 228 223 224 227 228 222 216 214 215 216 215 215 218 217 216 220 223 224 224 224 224 211 199 206 210 198 193 194 202 207 198 186 183 162 134 111 104 162 189 204 210 212 216 219 226 240 270 305 326 337 342 344 342 337 333 329 326 324 322 322 321 320 319 318 318 318 318 317
332 340 351 354 340 317 298 288 284 283 282 281 276 269 263 251 240 231 227 227 228 229 221 211 211 213 216 217 217 218 218 217 219 221 218 213 215 215 196 188 195 201 204 199 188 189 193 181 174 176 178 176 169 167 184 201 217 230 241 249 259 271 283 300 310 319 326 329 329 326 324 322 322 322 322 323 323 323 323 322 322 322 322 323 323
316 326 336 346 342 326 309 294 283 281 281 280 277 271 260 246 237 230 226 224 225 229 218 203 202 206 210 214 217 218 217 216 216 212 205 201 204 201 189 189 194 198 208 208 193 186 187 188 189 187 184 181 180 189 209 226 238 249 260 269 280 293 303 307 310 316 321 322 321 318 316 317 318 321 322 324 324 324 324 323 323 323 324 325 326
303 310 320 331 334 323 309 295 283 278 275 272 270 264 253 241 232 224 218 217 224 226 206 193 195 198 199 203 210 211 207 205 200 193 194 196 200 200 193 193 201 211 221 216 194 182 180 184 191 189 187 188 192 204 216 230 244 256 268 281 292 302 307 308 311 317 319 319 318 316 315 316 318 321 323 324 324 323 322 321 320 320 321 323 324
294 298 305 315 320 314 303 293 283 275 268 260 255 249 242 234 225 216 211 212 216 209 196 193 193 192 190 192 197 194 189 187 181 182 191 194 199 206 205 207 221 232 232 209 183 179 177 178 188 193 197 200 204 217 234 248 261 274 286 296 303 307 308 309 312 316 318 319 319 319 319 320 322 324 324 324 323 321 320 319 318 317 317 317 318
288 290 294 303 310 304 294 285 277 271 263 250 239 234 231 228 220 213 209 208 207 202 197 196 194 190 188 189 192 189 183 177 175 181 189 190 197 211 214 220 233 241 228 184 169 175 174 176 191 201 211 222 230 246 262 274 284 292 297 301 304 304 305 307 311 316 319 321 321 320 320 321 322 323 323 322 321 321 320 319 316 315 313 311 310
281 283 285 295 303 298 287 279 270 266 259 247 234 226 223 222 218 212 208 205 203 202 200 199 196 193 190 189 191 190 183 176 176 184 188 188 199 212 215 218 225 224 204 175 167 171 174 181 202 219 233 246 255 263 270 277 285 292 296 300 301 302 303 306 310 314 317 318 317 316 316 316 317 319 320 320 320 319 320 318 315 312 309 306 304
274 275 278 289 299 294 284 277 268 262 256 246 234 225 219 220 217 208 205 203 201 202 202 201 200 197 192 188 189 188 183 178 178 184 187 190 199 207 208 209 205 195 183 172 172 176 182 201 225 242 251 255 259 263 268 275 283 289 294 298 299 301 302 304 307 310 311 311 310 310 309 310 311 313 315 316 315 314 314 314 312 309 305 301 298
270 269 272 283 294 291 280 270 264 257 249 240 232 223 217 219 218 211 207 204 202 202 201 199 199 197 192 187 185 184 180 177 175 177 180 183 187 190 191 192 190 183 178 179 187 197 208 222 234 244 251 256 260 266 274 282 289 294 297 299 298 297 298 299 302 304 305 305 305 304 304 304 305 307 309 310 309 308 307 306 305 303 301 298 297
270 268 269 277 290 289 275 262 255 248 242 235 228 221 216 216 217 214 211 207 203 202 200 196 194 193 192 188 185 182 177 173 171 171 171 171 171 173 179 184 187 188 189 192 199 207 217 226 233 241 250 260 267 275 284 291 296 300 302 302 299 297 297 297 298 300 301 301 301 300 300 299 300 301 303 304 304 302 300 299 298 298 297 297 297
268 266 266 271 283 284 270 256 244 238 235 234 231 224 218 217 216 215 213 209 203 200 198 196 191 191 193 191 189 186 179 175 172 171 171 171 172 175 179 184 187 191 195 199 204 210 220 231 242 253 263 274 283 290 296 300 303 304 303 301 299 299 299 297 297 298 299 299 298 298 297 296 297 297 298 298 298 298 297 296 296 296 296 297 298
264 263 261 264 272 276 266 252 239 231 227 228 231 228 222 218 216 214 211 205 200 196 196 194 190 189 191 191 193 192 187 183 180 179 180 180 182 183 184 187 191 194 199 204 211 219 229 242 255 266 275 284 290 296 301 303 306 305 301 300 299 299 298 296 296 298 298 298 298 297 297 296 296 295 295 295 296 296 297 297 298 299 299 300 300
259 258 254 256 261 264 258 249 241 234 229 229 232 233 231 224 218 213 208 202 198 195 195 195 190 187 188 190 193 194 192 190 188 187 189 191 193 195 196 198 201 205 210 217 225 233 242 252 261 269 276 282 288 294 298 301 302 300 298 298 298 297 295 294 296 298 299 299 298 298 298 298 297 296 294 293 293 295 296 298 299 300 300 301 301
255 249 243 246 251 252 251 248 246 243 239 237 238 239 240 235 228 220 211 204 202 200 200 199 196 193 192 193 195 196 195 195 195 196 199 202 205 209 212 214 216 219 223 228 235 242 248 254 260 267 272 278 284 288 291 294 295 295 296 295 292 291 292 293 295 297 297 298 299 299 299 299 299 298 295 292 292 293 296 298 299 300 300 300 301
247 236 231 236 242 246 249 248 248 250 249 247 247 246 245 244 239 233 224 216 210 206 206 206 204 203 201 200 200 201 202 203 204 207 209 212 215 217 220 223 225 228 232 237 242 247 252 256 261 267 271 275 279 282 285 288 290 291 290 287 285 286 290 292 293 293 295 297 298 299 300 300 300 301 299 295 292 292 295 297 299 300 300 301 301
226 220 222 228 234 243 250 250 249 250 251 252 252 251 250 247 245 242 238 233 226 220 217 215 213 211 210 209 208 209 211 212 215 217 219 222 226 228 231 234 238 241 244 247 250 254 257 260 264 267 272 275 277 279 282 284 284 285 284 283 285 287 290 292 293 294 297 298 299 300 301 300 300 301 301 298 293 291 293 295 297 299 300 300 301
217 218 222 225 229 240 249 251 252 252 251 251 251 252 253 251 249 248 246 245 243 240 237 233 229 226 223 221 220 220 221 223 226 229 231 234 238 241 244 246 249 252 255 257 260 263 265 268 271 274 277 279 280 282 283 283 283 285 286 287 288 288 289 291 293 295 297 298 299 300 301 301 301 300 300 298 294 291 291 293 295 297 299 301 302
220 220 222 225 232 242 248 251 252 252 252 253 252 252 253 253 252 251 249 249 249 249 250 249 248 246 244 243 240 238 238 238 239 241 243 246 250 252 254 256 258 260 262 264 266 268 269 272 274 276 278 280 282 284 285 286 287 288 288 288 288 287 286 286 290 293 295 296 298 299 300 301 302 300 300 299 293 289 290 292 294 298 300 301 302
223 222 224 229 238 246 250 252 251 250 251 252 252 252 253 253 253 252 251 250 249 250 251 252 252 253 254 255 254 254 255 254 254 255 256 258 261 263 265 267 268 268 269 271 273 274 275 277 277 279 280 281 282 283 284 285 287 288 288 286 286 286 284 283 285 289 291 294 297 298 297 298 298 298 300 299 293 289 290 292 295 298 300 300 302
224 225 229 234 240 246 250 250 249 249 250 250 250 252 252 253 254 253 252 250 249 249 250 251 252 254 255 256 257 258 260 260 261 262 263 265 267 269 271 273 273 274 275 276 277 278 279 281 282 283 283 283 283 283 283 284 285 286 286 286 286 286 284 282 281 283 288 293 295 296 294 294 293 293 297 298 294 290 290 292 294 296 297 298 300
225 228 232 236 241 246 248 248 247 248 249 249 249 250 251 252 253 253 252 252 250 249 249 249 250 252 253 255 256 257 258 259 260 261 263 265 267 268 270 272 273 274 274 276 276 277 278 280 281 283 283 283 283 284 284 284 285 285 284 286 287 286 283 280 278 282 288 291 292 292 292 290 289 288 290 292 290 287 287 289 290 292 294 296 298
228 232 236 240 243 246 247 248 250 251 252 252 251 251 252 253 253 254 255 255 254 253 252 251 252 252 253 254 255 256 256 256 257 259 262 264 265 267 268 269 270 271 273 275 275 276 277 278 279 281 283 283 284 284 284 284 285 284 283 284 286 286 285 282 281 282 285 285 288 291 290 288 284 281 281 283 283 281 282 284 287 289 291 294 298
232 235 239 241 243 245 247 250 254 256 257 256 255 256 257 257 257 258 257 257 256 256 255 254 255 255 256 256 257 257 257 257 257 258 260 262 263 265 266 267 269 272 274 275 275 276 277 278 279 280 282 283 283 283 284 284 284 284 283 283 284 286 287 286 285 284 284 285 288 290 288 285 280 274 274 276 275 275 278 281 284 287 290 295 299
Height
3166 3167 3169 3170 3171 3172 3173 3173 3174 3174 3175 3175 3176 3177 3178 3178 3178 3178 3179 3180 3180 3181 3181 3182 3182 3182 3183 3183 3183 3184 3184 3184 3185 3186 3186 3187 3188 3189 3190 3191 3191 3192 3193 3193 3194 3194 3195 3195 3196 3196 3196 3196 3197 3197 3197 3197 3197 3197 3197 3197 3197 3197 3197 3197 3197 3197 3197 3196 3196 3196 3196 3195 3195 3195 3194 3194 3194 3193 3193 3193 3192 3192 3192 3191 3190
3166 3167 3168 3169 3170 3171 3172 3172 3173 3173 3174 3175 3175 3176 3177 3177 3177 3177 3178 3179 3179 3180 3180 3180 3181 3181 3181 3182 3182 3182 3182 3183 3184 3184 3185 3186 3186 3187 3188 3189 3190 3190 3191 3192 3192 3193 3193 3194 3194 3194 3195 3195 3195 3195 3196 3196 3196 3196 3196 3196 3196 3196 3196 3196 3196 3196 3196 3195 3195 3195 3195 3194 3194 3194 3194 3193 3193 3193 3192 3192 3192 3191 3191 3190 3190
3165 3166 3167 3168 3169 3170 3171 3171 3172 3172 3173 3174 3175 3176 3176 3176 3176 3176 3177 3177 3178 3178 3179 3179 3180 3180 3180 3180 3181 3181 3181 3182 3183 3183 3184 3184 3185 3186 3187 3188 3188 3189 3190 3190 3191 3191 3192 3192 3192 3192 3193 3193 3193 3194 3194 3194 3194 3194 3194 3194 3194 3194 3194 3194 3194 3194 3194 3194 3194 3194 3194 3194 3193 3193 3193 3192 3192 3192 3191 3191 3191 3190 3190 3190 3189
3165 3166 3166 3167 3168 3169 3170 3170 3171 3172 3173 3173 3174 3175 3175 3175 3175 3176 3176 3176 3177 3177 3178 3178 3178 3179 3179 3180 3180 3180 3181 3182 3182 3183 3184 3184 3184 3185 3185 3186 3187 3188 3188 3189 3189 3190 3190 3190 3190 3190 3191 3191 3192 3192 3192 3193 3193 3193 3193 3193 3193 3193 3193 3193 3193 3193 3193 3193 3193 3193 3193 3192 3192 3192 3192 3191 3191 3191 3190 3190 3190 3189 3189 3188 3188
3164 3165 3166 3166 3167 3168 3169 3169 3170 3171 3172 3172 3173 3173 3174 3174 3175 3175 3175 3175 3176 3176 3177 3177 3177 3178 3178 3178 3179 3180 3181 3181 3182 3182 3182 3183 3183 3184 3184 3185 3186 3186 3187 3187 3188 3188 3188 3188 3188 3189 3189 3190 3190 3190 3191 3191 3191 3191 3191 3191 3191 3192 3192 3192 3192 3192 3192 3192 3192 3192 3192 3191 3191 3191 3190 3190 3190 3189 3189 3189 3189 3188 3188 3187 3187
3164 3165 3165 3166 3167 3167 3168 3169 3169 3170 3171 3171 3172 3172 3173 3173 3174 3174 3174 3174 3175 3175 3176 3176 3177 3177 3177 3178 3179 3180 3180 3180 3180 3181 3181 3182 3182 3183 3183 3184 3185 3185 3185 3186 3186 3186 3187 3187 3186 3187 3187 3188 3188 3188 3189 3189 3189 3189 3189 3190 3190 3190 3190 3190 3190 3190 3190 3190 3190 3190 3190 3190 3190 3189 3189 3189 3188 3188 3188 3188 3187 3187 3187 3186 3186
3164 3164 3165 3165 3166 3167 3168 3168 3168 3169 3170 3170 3171 3171 3172 3172 3172 3173 3173 3173 3174 3175 3175 3176 3176 3176 3177 3178 3178 3178 3178 3179 3180 3180 3180 3181 3182 3182 3183 3183 3183 3184 3184 3185 3185 3185 3185 3185 3185 3186 3186 3187 3187 3187 3187 3188 3188 3188 3188 3188 3188 3188 3189 3189 3189 3189 3189 3189 3189 3189 3188 3188 3188 3188 3188 3187 3187 3187 3186 3186 3186 3186 3185 3185 3185
3163 3164 3164 3164 3165 3166 3167 3167 3167 3168 3169 3169 3170 3170 3171 3171 3171 3172 3172 3173 3173 3174 3175 3175 3176 3176 3177 3177 3177 3177 3177 3178 3179 3179 3179 3180 3180 3181 3182 3182 3183 3183 3183 3184 3184 3184 3184 3184 3184 3185 3185 3185 3186 3186 3186 3187 3187 3187 3187 3187 3187 3187 3187 3187 3187 3187 3187 3187 3187 3187 3187 3187 3186 3186 3186 3186 3185 3185 3185 3185 3185 3184 3184 3184 3183
3162 3163 3163 3164 3164 3165 3166 3166 3166 3167 3168 3168 3169 3169 3170 3170 3171 3171 3171 3172 3172 3173 3174 3175 3175 3177 3177 3176 3176 3176 3177 3177 3178 3178 3178 3179 3179 3180 3180 3181 3182 3182 3182 3183 3183 3183 3183 3183 3184 3184 3184 3184 3185 3185 3185 3185 3185 3185 3185 3186 3186 3186 3186 3186 3186 3186 3186 3186 3185 3185 3185 3185 3185 3185 3184 3184 3184 3183 3183 3183 3183 3183 3183 3182 3182
3161 3162 3162 3163 3164 3164 3164 3165 3166 3166 3167 3167 3168 3168 3169 3169 3170 3170 3171 3171 3172 3173 3174 3174 3175 3176 3176 3176 3175 3176 3176 3176 3177 3177 3177 3178 3178 3178 3179 3180 3181 3181 3182 3182 3182 3182 3182 3183 3183 3183 3183 3184 3184 3184 3184 3184 3184 3184 3185 3185 3185 3185 3185 3185 3185 3185 3185 3184 3184 3184 3184 3184 3183 3183 3183 3183 3182 3182 3182 3181 3181 3181 3181 3181 3181
3160 3160 3161 3161 3162 3163 3163 3164 3165 3165 3166 3166 3166 3167 3168 3169 3169 3170 3170 3171 3172 3173 3173 3174 3175 3176 3176 3175 3175 3176 3176 3175 3176 3177 3176 3177 3177 3177 3178 3179 3180 3180 3181 3181 3181 3182 3182 3182 3183 3183 3183 3184 3184 3184 3184 3184 3184 3184 3184 3184 3184 3184 3184 3184 3184 3184 3183 3183 3183 3183 3183 3182 3182 3182 3181 3181 3181 3181 3180 3180 3180 3180 3180 3180 3179
3158 3159 3160 3160 3161 3162 3162 3163 3164 3164 3165 3165 3166 3166 3167 3168 3169 3169 3170 3171 3172 3172 3173 3174 3175 3176 3175 3174 3174 3176 3176 3175 3176 3176 3176 3176 3176 3177 3178 3179 3179 3180 3181 3181 3181 3182 3182 3183 3183 3183 3183 3183 3184 3184 3183 3183 3183 3184 3184 3184 3183 3183 3183 3183 3183 3182 3182 3182 3181 3182 3181 3181 3181 3181 3180 3180 3180 3180 3179 3179 3179 3179 3178 3178 3178
3157 3158 3158 3159 3160 3161 3161 3162 3162 3163 3164 3165 3165 3165 3166 3167 3168 3169 3169 3170 3171 3172 3173 3174 3174 3175 3175 3174 3174 3175 3175 3175 3175 3175 3175 3176 3176 3177 3178 3178 3179 3180 3180 3181 3181 3182 3182 3183 3183 3183 3183 3183 3183 3183 3183 3183 3183 3183 3183 3183 3183 3182 3182 3182 3182 3182 3182 3181 3181 3181 3181 3180 3180 3180 3179 3179 3179 3179 3178 3178 3178 3177 3177 3177 3177
3156 3157 3158 3158 3159 3160 3160 3161 3161 3162 3163 3164 3164 3165 3165 3166 3167 3168 3169 3170 3171 3172 3172 3173 3174 3174 3174 3174 3174 3174 3174 3174 3175 3175 3175 3175 3176 3177 3177 3178 3179 3179 3180 3180 3181 3181 3182 3182 3182 3182 3182 3182 3183 3183 3183 3183 3183 3183 3183 3183 3183 3182 3182 3182 3182 3182 3182 3181 3181 3180 3180 3179 3179 3179 3179 3178 3178 3178 3177 3177 3177 3177 3176 3176 3176
3156 3157 3157 3158 3158 3159 3159 3160 3161 3161 3162 3162 3163 3164 3164 3165 3166 3167 3168 3169 3170 3171 3172 3172 3173 3174 3174 3173 3174 3174 3174 3174 3174 3174 3174 3175 3176 3176 3176 3177 3178 3178 3179 3179 3180 3181 3181 3181 3182 3182 3182 3182 3182 3183 3183 3183 3183 3183 3183 3183 3183 3183 3183 3183 3182 3182 3182 3181 3180 3180 3179 3179 3178 3178 3178 3177 3177 3177 3176 3176 3176 3176 3175 3175 3175
3156 3156 3157 3158 3158 3159 3159 3159 3160 3160 3161 3161 3162 3163 3163 3164 3165 3166 3167 3168 3169 3170 3171 3171 3172 3173 3173 3173 3173 3173 3173 3174 3174 3174 3174 3174 3175 3176 3176 3176 3177 3177 3178 3178 3179 3180 3180 3180 3180 3181 3181 3182 3182 3183 3183 3183 3183 3183 3183 3183 3183 3183 3183 3182 3182 3181 3181 3180 3180 3179 3179 3178 3178 3177 3177 3177 3176 3176 3176 3175 3175 3175 3174 3174 3174
3155 3156 3157 3158 3158 3159 3159 3159 3159 3160 3160 3161 3161 3162 3162 3163 3164 3165 3166 3167 3168 3168 3169 3170 3171 3172 3172 3173 3172 3172 3173 3174 3174 3173 3173 3174 3175 3175 3175 3175 3176 3176 3177 3177 3178 3179 3179 3179 3179 3180 3180 3181 3182 3182 3183 3183 3183 3183 3183 3183 3183 3182 3182 3182 3181 3180 3180 3179 3179 3178 3178 3177 3177 3176 3176 3176 3176 3175 3175 3175 3174 3174 3173 3173 3173
3155 3156 3156 3157 3158 3158 3159 3159 3159 3159 3160 3160 3161 3161 3162 3162 3163 3164 3165 3166 3167 3167 3168 3169 3170 3171 3172 3172 3172 3172 3172 3173 3174 3173 3173 3174 3174 3174 3174 3175 3175 3175 3176 3177 3177 3178 3178 3178 3179 3179 3180 3180 3181 3182 3182 3182 3182 3182 3182 3181 3181 3181 3181 3180 3180 3179 3179 3178 3178 3177 3177 3177 3176 3176 3176 3175 3175 3175 3174 3174 3174 3173 3173 3173 3172
3155 3155 3156 3157 3157 3158 3158 3158 3159 3159 3159 3159 3160 3161 3161 3162 3162 3163 3164 3165 3166 3166 3167 3168 3169 3170 3171 3171 3171 3172 3172 3173 3173 3173 3173 3173 3174 3174 3174 3174 3174 3175 3176 3176 3177 3177 3178 3178 3178 3178 3179 3180 3180 3181 3181 3181 3181 3181 3181 3180 3180 3180 3180 3179 3179 3179 3178 3178 3178 3177 3177 3176 3176 3175 3175 3175 3174 3174 3174 3174 3173 3173 3173 3173 3172
3154 3155 3155 3156 3156 3157 3157 3157 3158 3158 3158 3159 3159 3160 3160 3161 3161 3162 3163 3164 3164 3165 3166 3167 3167 3168 3169 3170 3171 3171 3171 3172 3173 3173 3173 3173 3173 3174 3174 3174 3175 3175 3176 3176 3177 3177 3177 3178 3178 3179 3179 3179 3180 3180 3180 3180 3180 3180 3180 3180 3179 3179 3179 3179 3179 3179 3178 3178 3178 3177 3177 3176 3176 3175 3175 3174 3174 3174 3174 3174 3173 3173 3173 3172 3172
3154 3154 3154 3155 3155 3156 3156 3157 3157 3157 3157 3157 3158 3158 3159 3159 3160 3161 3161 3162 3163 3164 3165 3165 3166 3167 3168 3169 3169 3170 3171 3172 3172 3172 3173 3173 3173 3174 3174 3174 3175 3175 3176 3177 3177 3177 3178 3178 3179 3179 3179 3179 3179 3179 3179 3180 3180 3179 3179 3179 3179 3179 3179 3179 3179 3179 3178 3178 3177 3177 3177 3176 3176 3175 3175 3174 3174 3174 3174 3174 3173 3173 3172 3172 3172
3152 3153 3153 3153 3154 3155 3155 3155 3156 3156 3156 3156 3157 3157 3158 3158 3159 3159 3160 3161 3162 3163 3163 3164 3165 3166 3166 3167 3168 3169 3170 3171 3171 3172 3172 3172 3173 3173 3174 3174 3174 3175 3176 3176 3177 3177 3178 3178 3178 3178 3178 3178 3178 3178 3179 3179 3179 3179 3179 3179 3179 3179 3179 3179 3179 3179 3178 3178 3177 3177 3176 3176 3176 3175 3175 3175 3175 3174 3174 3174 3173 3173 3173 3172 3172
3151 3152 3152 3152 3152 3153 3153 3154 3154 3155 3155 3155 3156 3156 3157 3157 3158 3158 3159 3160 3161 3162 3162 3163 3164 3165 3165 3166 3167 3167 3168 3169 3170 3171 3172 3172 3172 3173 3173 3173 3174 3174 3175 3175 3176 3176 3177 3177 3177 3178 3178 3178 3178 3178 3178 3178 3178 3178 3178 3178 3178 3178 3179 3179 3179 3179 3178 3178 3177 3177 3177 3176 3176 3176 3175 3175 3175 3175 3174 3174 3173 3173 3173 3172 3172
3150 3150 3151 3151 3151 3151 3151 3152 3153 3154 3154 3154 3155 3155 3155 3156 3156 3157 3158 3159 3160 3160 3161 3162 3163 3164 3164 3165 3166 3166 3167 3167 3168 3170 3171 3171 3172 3172 3173 3173 3173 3174 3174 3175 3175 3176 3176 3176 3176 3177 3177 3177 3177 3177 3178 3178 3178 3178 3178 3178 3178 3179 3179 3179 3179 3179 3178 3178 3178 3177 3177 3177 3177 3176 3176 3176 3175 3175 3174 3174 3173 3173 3173 3172 3172
3149 3149 3149 3149 3149 3149 3150 3150 3151 3152 3153 3153 3154 3154 3154 3155 3155 3156 3157 3158 3158 3159 3159 3160 3161 3163 3164 3164 3165 3165 3166 3166 3167 3168 3170 3171 3171 3172 3172 3172 3173 3173 3174 3174 3174 3175 3175 3175 3176 3176 3176 3177 3177 3177 3177 3177 3178 3178 3178 3178 3179 3179 3179 3179 3179 3179 3178 3178 3178 3178 3178 3177 3177 3177 3176 3176 3176 3175 3174 3174 3173 3173 3173 3172 3172
3149 3148 3148 3148 3148 3148 3148 3149 3150 3151 3152 3152 3153 3153 3153 3154 3154 3155 3156 3156 3157 3158 3159 3159 3160 3161 3163 3163 3164 3165 3165 3166 3167 3168 3169 3170 3171 3171 3172 3172 3172 3173 3173 3174 3174 3174 3174 3175 3175 3175 3176 3176 3177 3177 3177 3177 3177 3178 3178 3178 3179 3179 3179 3179 3179 3178 3178 3178 3178 3178 3178 3177 3177 3176 3176 3176 3175 3175 3174 3174 3173 3173 3172 3172 3171
3148 3148 3147 3147 3147 3147 3148 3149 3149 3150 3151 3151 3152 3152 3152 3153 3153 3154 3154 3155 3156 3157 3158 3158 3159 3160 3161 3162 3163 3164 3165 3166 3167 3167 3168 3169 3169 3170 3171 3172 3172 3172 3172 3173 3173 3173 3174 3174 3174 3175 3175 3176 3176 3176 3176 3177 3177 3177 3178 3178 3178 3178 3179 3178 3178 3178 3178 3177 3177 3177 3177 3177 3176 3176 3175 3175 3175 3174 3174 3173 3173 3172 3172 3171 3171
3147 3147 3147 3147 3147 3147 3148 3148 3149 3149 3150 3150 3151 3151 3151 3152 3152 3153 3153 3154 3155 3156 3157 3158 3158 3159 3160 3161 3162 3163 3163 3165 3166 3166 3167 3168 3168 3169 3170 3170 3171 3171 3171 3172 3172 3173 3173 3173 3174 3174 3174 3175 3175 3176 3176 3176 3177 3177 3177 3178 3178 3178 3178 3178 3177 3177 3177 3177 3177 3176 3176 3176 3175 3175 3175 3174 3174 3174 3173 3172 3172 3171 3171 3170 3170
3146 3146 3146 3146 3146 3146 3147 3147 3148 3148 3149 3149 3150 3150 3150 3151 3151 3152 3152 3153 3154 3155 3155 3156 3157 3158 3159 3159 3160 3161 3162 3163 3164 3165 3165 3166 3167 3168 3169 3169 3169 3170 3170 3171 3171 3172 3172 3173 3173 3173 3174 3174 3175 3175 3176 3176 3176 3176 3177 3177 3177 3177 3177 3177 3176 3176 3176 3176 3176 3176 3175 3175 3174 3174 3173 3173 3173 3172 3172 3171 3171 3170 3170 3169 3168
3146 3146 3146 3146 3146 3146 3146 3147 3147 3147 3148 3148 3148 3149 3149 3150 3150 3151 3152 3152 3153 3153 3154 3155 3156 3156 3157 3158 3159 3160 3161 3162 3163 3164 3164 3165 3166 3167 3168 3168 3169 3169 3170 3170 3170 3171 3172 3172 3172 3173 3173 3174 3175 3175 3175 3176 3176 3176 3176 3176 3177 3177 3176 3176 3176 3175 3175 3175 3175 3175 3174 3174 3173 3173 3172 3172 3171 3171 3170 3169 3169 3168 3168 3167 3167
3145 3145 3145 3145 3145 3145 3145 3146 3146 3146 3147 3147 3147 3148 3148 3149 3149 3150 3151 3151 3152 3152 3153 3153 3154 3155 3156 3156 3157 3158 3160 3161 3162 3162 3163 3164 3165 3166 3167 3167 3168 3169 3169 3170 3170 3170 3171 3171 3172 3172 3173 3173 3174 3175 3175 3175 3175 3176 3176 3176 3176 3176 3176 3175 3175 3175 3175 3175 3174 3174 3173 3173 3172 3172 3171 3171 3170 3169 3168 3167 3167 3166 3165 3165 3164
3144 3144 3144 3145 3145 3145 3145 3145 3145 3145 3146 3146 3146 3146 3147 3148 3149 3149 3150 3150 3151 3151 3152 3152 3153 3154 3155 3155 3156 3157 3158 3160 3160 3161 3162 3163 3164 3165 3166 3166 3167 3168 3169 3169 3169 3170 3170 3171 3171 3172 3172 3173 3174 3174 3175 3175 3175 3175 3175 3175 3175 3175 3175 3174 3174 3174 3174 3174 3173 3173 3172 3172 3171 3171 3170 3169 3169 3168 3167 3166 3165 3164 3163 3163 3162
3143 3143 3143 3144 3144 3144 3144 3144 3144 3144 3145 3145 3145 3146 3146 3147 3148 3149 3149 3150 3150 3150 3151 3152 3153 3153 3154 3155 3156 3156 3157 3158 3159 3160 3161 3162 3163 3164 3165 3165 3166 3167 3168 3168 3169 3169 3170 3170 3171 3171 3172 3172 3173 3174 3174 3174 3175 3175 3175 3175 3174 3174 3174 3174 3173 3173 3173 3173 3172 3172 3171 3171 3171 3170 3169 3168 3168 3167 3166 3165 3163 3162 3162 3161 3160
3142 3142 3143 3143 3143 3143 3144 3144 3144 3144 3144 3144 3144 3145 3146 3146 3147 3148 3148 3149 3149 3150 3150 3151 3152 3153 3154 3154 3155 3156 3157 3158 3159 3160 3161 3162 3162 3163 3164 3164 3165 3166 3167 3167 3168 3169 3169 3170 3170 3171 3171 3172 3172 3173 3173 3174 3174 3173 3173 3173 3173 3173 3172 3172 3172 3172 3171 3171 3171 3170 3170 3170 3169 3169 3168 3167 3166 3165 3164 3163 3162 3161 3160 3160 3159
3141 3141 3142 3142 3142 3142 3142 3143 3143 3143 3143 3143 3144 3144 3145 3146 3146 3147 3148 3148 3149 3149 3150 3151 3151 3152 3153 3154 3155 3155 3156 3157 3158 3159 3160 3161 3162 3162 3163 3164 3164 3165 3166 3166 3167 3168 3168 3169 3170 3170 3171 3171 3171 3172 3172 3172 3172 3172 3172 3172 3171 3171 3171 3170 3170 3170 3169 3169 3169 3169 3168 3168 3168 3167 3166 3166 3165 3164 3163 3162 3161 3160 3160 3159 3158
3139 3140 3140 3141 3141 3141 3141 3141 3141 3141 3142 3142 3143 3144 3144 3145 3145 3146 3147 3148 3149 3149 3150 3150 3151 3151 3152 3153 3154 3155 3156 3156 3157 3158 3159 3160 3161 3162 3163 3163 3164 3165 3165 3166 3166 3167 3168 3168 3169 3169 3169 3170 3170 3170 3170 3171 3171 3171 3170 3170 3170 3169 3169 3168 3168 3168 3168 3167 3167 3167 3167 3167 3166 3165 3165 3164 3163 3163 3162 3161 3160 3159 3158 3157 3156
3138 3139 3139 3139 3139 3139 3139 3140 3140 3140 3141 3141 3142 3143 3143 3144 3145 3145 3146 3147 3148 3149 3150 3150 3151 3151 3152 3152 3153 3154 3155 3156 3157 3158 3159 3160 3160 3161 3162 3163 3164 3164 3165 3165 3166 3166 3167 3167 3168 3168 3168 3169 3169 3169 3169 3169 3169 3169 3169 3168 3168 3168 3167 3166 3166 3166 3166 3165 3165 3165 3165 3165 3164 3164 3163 3162 3162 3161 3160 3159 3159 3158 3157 3156 3154
3136 3137 3138 3138 3138 3138 3139 3139 3139 3139 3139 3140 3141 3142 3142 3143 3144 3144 3145 3146 3147 3148 3149 3150 3150 3151 3151 3152 3152 3153 3154 3155 3156 3157 3158 3158 3159 3160 3161 3162 3163 3164 3164 3165 3165 3166 3166 3166 3167 3167 3167 3167 3168 3168 3168 3167 3167 3167 3167 3166 3166 3166 3166 3165 3165 3164 3164 3164 3163 3163 3163 3162 3162 3162 3161 3160 3159 3159 3158 3157 3156 3155 3154 3153 3152
3134 3135 3136 3137 3137 3137 3138 3138 3138 3138 3139 3139 3140 3141 3142 3142 3143 3144 3145 3146 3147 3148 3149 3149 3150 3150 3151 3151 3152 3152 3153 3153 3154 3155 3156 3157 3158 3159 3160 3161 3162 3162 3163 3164 3164 3165 3165 3165 3165 3166 3166 3166 3166 3166 3166 3166 3166 3165 3165 3164 3164 3164 3163 3163 3163 3163 3162 3162 3161 3161 3160 3160 3160 3159 3159 3158 3157 3156 3155 3154 3153 3152 3151 3150 3149
3132 3133 3134 3135 3135 3136 3136 3137 3137 3137 3138 3138 3139 3140 3141 3142 3143 3144 3145 3146 3146 3147 3148 3149 3149 3150 3150 3151 3151 3152 3152 3153 3153 3154 3155 3156 3157 3158 3159 3160 3161 3161 3162 3162 3163 3163 3163 3163 3164 3164 3164 3164 3164 3164 3164 3164 3164 3163 3163 3162 3161 3161 3161 3160 3160 3160 3160 3159 3159 3158 3158 3157 3157 3156 3155 3155 3154 3153 3152 3151 3150 3149 3148 3147 3146
3130 3132 3132 3133 3134 3134 3135 3136 3136 3137 3137 3138 3138 3139 3140 3141 3142 3143 3144 3145 3146 3147 3148 3148 3149 3149 3150 3150 3151 3152 3152 3153 3153 3154 3155 3156 3156 3157 3158 3159 3159 3160 3160 3160 3161 3161 3162 3162 3162 3162 3162 3163 3163 3162 3162 3162 3162 3161 3161 3160 3159 3159 3159 3158 3158 3158 3157 3157 3156 3156 3155 3154 3154 3153 3152 3152 3151 3150 3149 3148 3147 3145 3144 3143 3142
3128 3129 3131 3131 3132 3133 3134 3135 3135 3136 3137 3137 3138 3139 3140 3141 3142 3143 3143 3144 3145 3146 3147 3147 3148 3149 3149 3150 3150 3151 3152 3152 3153 3153 3154 3155 3155 3156 3156 3157 3157 3158 3158 3159 3159 3159 3160 3160 3160 3160 3160 3160 3160 3160 3160 3159 3159 3158 3158 3158 3157 3157 3156 3156 3155 3155 3155 3154 3153 3152 3152 3152 3151 3150 3149 3148 3147 3147 3146 3145 3143 3142 3141 3140 3138
3126 3127 3129 3130 3131 3131 3132 3133 3134 3135 3136 3137 3137 3138 3139 3140 3141 3142 3142 3143 3144 3145 3145 3146 3147 3148 3149 3149 3150 3150 3151 3151 3152 3153 3153 3154 3154 3154 3155 3155 3155 3156 3156 3156 3157 3157 3157 3157 3157 3157 3157 3158 3158 3157 3157 3157 3156 3156 3155 3155 3155 3154 3154 3153 3152 3152 3152 3151 3150 3149 3148 3148 3147 3146 3145 3145 3144 3143 3142 3141 3140 3138 3137 3136 3135
3124 3126 3127 3129 3129 3130 3131 3132 3133 3134 3135 3136 3136 3137 3138 3139 3140 3140 3141 3142 3143 3143 3144 3145 3146 3146 3147 3148 3148 3149 3149 3150 3150 3151 3152 3152 3152 3153 3153 3153 3153 3153 3154 3154 3154 3154 3154 3154 3154 3154 3154 3154 3154 3154 3154 3154 3153 3153 3152 3151 3151 3151 3150 3150 3149 3148 3148 3147 3146 3145 3144 3144 3144 3143 3142 3141 3140 3139 3139 3138 3136 3135 3134 3132 3131
3123 3124 3126 3127 3128 3129 3130 3131 3131 3132 3133 3134 3135 3136 3137 3138 3139 3139 3140 3141 3142 3142 3143 3144 3144 3145 3145 3146 3147 3147 3148 3148 3148 3149 3149 3150 3150 3150 3150 3150 3150 3150 3151 3151 3151 3151 3151 3151 3151 3151 3151 3151 3150 3150 3150 3150 3149 3149 3148 3148 3147 3147 3146 3146 3145 3144 3144 3143 3142 3141 3140 3140 3140 3139 3138 3137 3136 3135 3134 3133 3132 3131 3129 3128 3127
3121 3123 3124 3125 3127 3128 3128 3129 3130 3130 3131 3132 3133 3134 3135 3136 3137 3138 3139 3139 3140 3141 3141 3142 3143 3143 3144 3144 3145 3145 3145 3146 3146 3146 3146 3146 3146 3146 3146 3146 3146 3147 3147 3147 3148 3147 3147 3147 3147 3147 3147 3147 3146 3146 3146 3146 3145 3145 3144 3144 3143 3143 3142 3141 3140 3140 3140 3139 3139 3137 3136 3136 3136 3135 3133 3133 3132 3131 3130 3129 3127 3126 3124 3123 3122
3120 3122 3123 3124 3125 3126 3127 3127 3128 3129 3129 3130 3131 3132 3133 3134 3135 3136 3136 3137 3138 3138 3139 3139 3139 3140 3140 3141 3142 3142 3143 3143 3143 3143 3143 3143 3143 3142 3142 3142 3142 3142 3143 3143 3143 3143 3143 3143 3143 3143 3143 3143 3143 3142 3142 3142 3141 3141 3140 3140 3139 3139 3138 3137 3136 3136 3136 3136 3135 3134 3132 3131 3132 3131 3129 3129 3128 3127 3126 3124 3123 3121 3120 3118 3117
3119 3120 3121 3122 3123 3124 3125 3125 3126 3127 3127 3128 3129 3129 3130 3131 3132 3133 3134 3135 3135 3136 3136 3136 3137 3137 3137 3138 3138 3139 3139 3139 3139 3139 3139 3139 3139 3139 3139 3139 3138 3138 3139 3139 3139 3139 3139 3139 3139 3139 3138 3138 3138 3138 3138 3138 3138 3137 3136 3135 3135 3135 3134 3133 3132 3132 3132 3132 3131 3130 3128 3127 3127 3126 3125 3124 3123 3122 3121 3120 3118 3117 3116 3115 3114
3117 3118 3119 3120 3121 3122 3122 3123 3124 3124 3125 3125 3126 3127 3127 3128 3129 3130 3131 3131 3132 3132 3133 3133 3134 3134 3134 3134 3135 3135 3136 3136 3135 3135 3134 3134 3134 3135 3135 3135 3134 3134 3135 3135 3135 3135 3135 3135 3135 3135 3134 3134 3134 3134 3133 3133 3133 3133 3132 3131 3130 3130 3130 3129 3129 3128 3128 3127 3126 3126 3124 3122 3122 3122 3121 3120 3119 3118 3117 3116 3114 3113 3113 3112 3110
3115 3116 3117 3118 3119 3119 3120 3120 3121 3121 3122 3123 3123 3124 3125 3125 3126 3127 3128 3128 3129 3129 3130 3130 3130 3130 3131 3131 3131 3131 3132 3132 3132 3131 3130 3130 3130 3130 3130 3130 3130 3130 3131 3131 3130 3130 3130 3130 3130 3130 3130 3130 3130 3130 3129 3129 3129 3129 3128 3127 3126 3126 3125 3125 3125 3124 3123 3122 3121 3121 3119 3118 3118 3117 3116 3116 3115 3115 3114 3112 3111 3110 3109 3108 3106
3113 3114 3115 3116 3117 3117 3117 3118 3118 3118 3119 3120 3120 3121 3121 3122 3123 3123 3124 3125 3125 3126 3126 3127 3127 3127 3127 3127 3127 3127 3127 3128 3127 3127 3127 3126 3126 3126 3126 3126 3125 3126 3127 3127 3125 3125 3126 3125 3126 3126 3126 3126 3126 3125 3125 3125 3124 3124 3124 3123 3122 3121 3121 3120 3120 3118 3117 3116 3116 3116 3114 3113 3113 3113 3112 3111 3111 3110 3110 3109 3107 3105 3105 3103 3102